Location: Góry Miechowskie
(50.3599°N, 20.1803°E)
Time: 22:07:20
(UTC+00:00)

S-56A Canister/Altair - Pass Details

Date: 22 September 2024
Orbit: 636 x 2487 km, 38.9° (Epoch: 09 October)

Event Time Altitude Azimuth Distance (km) Brightness Sun altitude
Rises 19:41:57 0° 261° (W) 3,452 11.4 -28.2°
Reaches altitude 10° 19:44:53 10° 244° (WSW) 2,735 10.6 -28.5°
Enters shadow 19:48:46 20° 207° (SSW) 2,403 9.9 -29.0°
Maximum altitude 19:49:31 20° 199° (SSW) 2,444 - -29.1°
Drops below altitude 10° 19:55:25 10° 157° (SSE) 3,616 - -29.8°
Sets 20:00:06 0° 143° (SE) 4,977 - -30.3°
